Location: Copeville
(33.0796°N, 96.4155°W)
Time: 10:55:34
(UTC+00:00)

Max Valier Satellite - Pass Details

Date: 26 March 2023
Orbit: 443 x 458 km, 97.2° (Epoch: 07 June)

Event Time Altitude Azimuth Distance (km) Brightness Sun altitude
Exits shadow 02:13:41 21° 189° (S) 1,039 ? -20.0°
Maximum altitude 02:15:39 53° 260° (W) 548 ? -20.4°
Drops below altitude 10° 02:18:57 10° 339° (NNW) 1,568 ? -21.0°
Sets 02:21:01 0° 344° (NNW) 2,444 ? -21.4°
